Temp
54 53 55 56 55 54 55 55 57 57 55 57 55 54 54 52 50 47 45 47 49 54 58 58 56 58 61 61 62 64 63 65 65 63 63 62 61 63 63 64 66 69 70 71 72 72 71 71 71 71 70 70 69 69 70 70 70 69 69 69 67 65 65 65 65 65 64 64 64 64 63 63 63 63
54 54 55 54 55 55 55 56 54 54 54 53 54 52 52 52 52 48 48 50 48 52 54 56 58 57 59 60 61 60 61 64 65 63 63 62 62 62 61 61 62 65 67 67 69 71 72 72 72 71 70 70 70 70 70 70 69 69 68 66 64 64 65 65 65 65 64 64 64 64 63 63 63 63
55 55 56 53 53 53 54 54 54 54 55 55 54 53 54 53 54 52 48 48 50 52 54 53 56 58 57 60 60 63 63 63 64 63 62 63 64 63 63 61 61 61 61 62 64 65 69 71 72 72 71 71 70 70 70 69 69 68 65 63 61 62 64 65 65 65 64 64 64 64 63 63 63 63
56 53 54 56 57 55 53 53 54 54 55 54 54 55 55 53 53 52 51 49 55 50 52 54 57 59 61 61 60 62 64 65 64 60 61 63 64 63 63 62 60 59 59 59 60 60 64 68 71 71 71 71 71 70 68 67 66 64 63 62 60 61 64 65 65 65 65 65 65 64 63 63 63 63
56 56 56 57 57 55 55 56 57 56 56 56 54 55 54 53 52 52 51 50 52 54 50 53 58 60 58 60 61 61 61 61 60 60 59 60 59 60 60 62 61 59 58 58 57 57 58 61 65 67 68 68 66 64 63 61 61 62 62 61 60 59 62 65 65 65 65 65 65 64 64 64 63 63
58 58 58 60 59 58 57 58 59 59 58 57 55 55 56 53 55 53 54 51 49 54 55 56 56 56 57 58 63 60 60 60 59 59 59 61 59 61 60 59 61 60 58 57 57 56 56 56 57 59 61 61 59 58 58 58 58 59 59 59 58 57 58 62 65 65 65 64 64 64 64 63 63 63
59 58 58 59 59 58 57 57 58 59 58 58 57 58 57 56 56 56 55 53 52 53 55 55 56 57 57 56 62 62 62 61 61 60 60 61 63 63 61 59 60 59 58 57 56 56 55 55 55 56 57 57 57 57 57 56 56 55 56 56 56 56 55 57 62 64 65 64 64 63 63 63 62 62
60 60 58 59 59 58 57 57 57 58 57 56 57 58 58 56 58 58 55 55 54 54 53 54 56 59 54 57 59 61 62 61 62 62 62 59 61 63 63 62 61 61 59 57 56 56 55 55 55 55 55 55 55 55 56 56 56 55 55 55 55 55 55 54 56 60 63 63 60 61 61 60 60 61
62 61 60 60 60 58 57 58 58 58 57 58 57 57 58 57 58 58 56 56 54 53 53 54 55 56 56 57 58 59 59 60 60 60 60 62 61 61 62 61 63 61 60 58 56 56 55 55 55 55 54 54 54 54 54 55 55 55 55 54 54 54 54 53 53 54 56 56 55 54 54 53 56 58
63 62 62 62 61 60 59 59 59 58 58 59 57 57 57 58 57 56 56 55 54 53 53 53 54 52 54 56 57 59 57 57 58 59 61 60 61 60 59 60 64 63 66 61 60 56 55 55 55 54 54 54 54 54 54 54 55 55 55 54 53 53 52 52 51 51 51 52 52 51 51 52 54 55
63 64 64 63 63 62 61 60 60 59 58 58 58 58 58 57 55 55 55 55 54 53 53 54 53 53 53 54 57 60 56 58 58 58 58 57 61 59 58 58 61 62 63 60 60 59 59 59 58 55 54 54 54 54 54 54 55 55 55 54 53 52 52 51 51 50 50 50 49 49 49 49 50 51
64 64 65 65 64 64 63 61 61 60 59 58 57 58 58 57 56 55 55 55 54 54 53 54 56 55 54 52 55 57 55 53 54 56 56 56 59 59 57 58 59 61 60 59 61 62 62 60 58 56 56 55 55 54 55 55 56 56 54 53 52 52 51 51 50 50 50 50 49 49 48 47 47 48
63 64 65 65 65 64 65 64 63 63 62 59 58 59 58 57 55 55 56 56 56 55 55 55 55 54 53 55 56 55 53 55 58 59 56 55 57 58 56 57 57 58 59 58 59 60 61 59 58 57 55 55 55 54 55 54 55 55 53 52 51 51 50 50 50 49 49 49 49 49 48 48 47 47
61 62 63 65 65 64 64 63 61 59 59 60 61 61 59 57 56 56 55 55 56 55 55 56 56 53 54 57 57 56 56 59 57 54 54 53 53 52 54 55 56 57 57 56 55 57 58 57 57 56 53 54 54 51 51 51 52 53 52 51 51 51 50 49 49 49 49 48 48 48 48 47 47 47
59 60 62 62 63 63 63 62 58 55 53 52 53 55 57 60 60 57 56 56 57 56 56 57 56 55 55 57 59 58 59 57 56 54 54 52 51 53 52 53 57 55 57 54 53 55 55 54 53 55 53 53 52 51 51 51 51 51 51 51 50 50 49 49 49 48 48 47 47 47 47 47 47 46
58 59 60 61 63 62 60 60 60 59 56 52 51 50 50 50 51 53 58 59 58 58 57 56 56 56 56 58 58 58 55 55 55 55 54 53 53 52 52 53 53 55 55 52 51 53 51 51 51 50 51 51 51 52 51 50 50 50 50 49 49 49 48 48 48 48 48 47 47 47 47 46 46 46
58 58 59 59 59 62 63 62 59 58 58 56 54 53 52 51 49 46 45 48 53 55 55 54 55 56 57 56 56 58 56 54 54 54 54 53 53 53 52 53 53 55 53 53 51 52 52 49 49 49 51 51 52 52 51 51 50 50 49 48 48 47 47 47 48 48 47 47 47 47 46 46 46 46
58 58 58 57 57 58 58 54 52 54 56 56 56 56 57 57 58 53 48 47 47 49 52 53 52 54 55 54 56 57 55 55 54 54 54 54 53 52 53 54 53 53 52 53 53 52 51 50 49 49 50 51 51 50 49 48 48 48 48 48 48 48 47 47 47 47 47 47 47 46 46 46 45 45
56 56 56 56 55 56 53 49 48 50 51 53 54 55 55 56 56 57 57 58 57 55 53 52 53 54 55 55 56 56 55 55 55 55 54 54 54 54 54 53 52 51 51 51 51 49 48 49 48 48 50 51 51 51 49 49 49 49 49 48 48 48 47 47 46 47 47 47 47 46 46 46 45 45
52 52 51 51 52 52 52 48 42 44 46 50 53 54 55 55 56 56 58 48 47 49 51 52 51 50 47 46 47 48 50 52 52 52 53 52 52 51 50 50 49 48 50 50 49 46 46 48 47 47 49 49 49 50 50 50 49 49 48 48 48 47 47 46 46 46 46 46 47 46 46 45 45 45
52 52 51 49 48 49 48 44 40 41 46 49 51 51 51 53 54 54 54 47 45 44 44 43 43 43 43 43 43 43 43 46 50 50 49 49 50 49 48 48 46 46 47 48 48 45 45 46 45 46 46 47 46 48 49 50 49 48 48 48 47 47 47 46 46 46 46 46 46 46 46 46 46 46
51 52 53 50 47 46 46 41 41 41 48 50 50 50 51 52 51 51 52 54 52 47 45 45 44 44 44 44 45 44 44 45 49 49 47 48 48 47 46 45 44 46 47 47 48 43 44 44 45 43 45 44 45 46 47 48 49 48 48 48 47 47 47 46 46 46 46 46 46 46 46 46 46 47
48 48 49 49 45 45 43 40 41 41 48 49 49 49 49 49 49 49 51 50 49 49 49 49 49 47 48 49 48 48 47 47 49 47 48 48 46 45 45 44 43 42 45 46 48 43 44 43 44 42 41 41 44 45 46 47 47 48 48 49 49 49 48 47 46 46 46 46 47 47 47 46 46 46
44 45 44 47 41 38 40 40 40 40 41 47 48 49 48 48 47 49 49 49 46 45 46 45 45 45 46 46 46 46 46 46 46 45 46 46 45 44 42 42 42 41 43 45 46 44 44 43 43 42 42 40 41 44 44 45 47 48 48 48 47 49 49 48 47 47 46 46 46 47 47 47 46 45
43 43 43 42 44 38 40 40 40 40 40 44 47 46 47 46 46 47 45 46 47 44 44 44 44 44 44 44 45 45 45 46 45 44 43 44 45 44 42 40 40 42 43 44 44 42 43 40 40 39 40 40 41 41 43 44 46 47 49 47 47 48 47 48 48 47 48 47 47 46 46 45 45 45
43 42 41 42 43 38 39 40 41 41 41 42 46 43 40 39 40 45 44 42 43 43 43 44 43 43 43 42 42 43 43 43 45 44 43 41 41 43 43 43 40 39 42 43 43 41 40 40 37 36 38 38 39 40 40 42 44 45 47 47 48 48 46 47 46 47 47 47 48 48 48 47 47 46
42 41 40 43 44 38 39 39 39 40 42 44 42 39 39 40 41 44 42 42 43 43 42 42 42 41 42 41 41 41 40 41 40 40 40 40 40 42 44 44 42 42 43 41 45 41 39 39 39 37 38 36 36 36 37 38 41 45 47 48 46 45 45 43 45 46 45 45 47 47 47 47 47 47
42 42 40 41 37 36 38 39 39 39 39 40 42 42 41 41 42 41 42 41 42 41 40 41 41 41 41 40 39 39 39 40 40 40 40 39 39 38 40 39 42 43 42 41 41 38 38 38 39 37 36 35 36 36 36 37 39 39 41 46 45 46 45 44 43 46 45 44 44 44 43 44 46 45
42 40 38 36 36 37 37 37 39 41 42 39 40 42 43 47 39 39 39 39 39 39 39 40 39 39 41 40 40 39 38 39 39 38 39 39 37 38 38 38 40 42 43 43 40 39 39 38 38 37 36 35 37 36 38 37 38 38 40 41 42 43 43 42 41 42 43 43 42 43 42 42 42 43
38 38 39 39 40 41 40 40 40 40 41 42 42 42 44 39 39 38 38 38 37 38 38 39 39 39 36 37 39 39 39 39 39 37 38 40 41 38 39 40 39 38 40 41 42 40 39 38 38 37 37 37 38 37 36 37 36 38 40 40 42 40 36 39 41 40 42 42 42 42 43 41 41 43
42 43 44 44 42 42 41 40 40 41 42 43 44 41 40 37 37 36 37 36 37 38 37 38 37 37 36 39 40 40 37 39 39 37 39 38 37 40 38 38 42 41 40 39 41 40 39 40 39 39 39 37 38 40 37 37 38 40 39 39 40 43 41 39 41 40 38 41 41 40 41 41 42 43
41 43 44 43 43 44 45 43 42 43 44 44 41 41 40 40 39 43 46 45 36 36 36 35 35 38 38 40 40 40 41 40 39 39 40 40 39 39 38 40 38 37 40 40 40 41 43 40 39 41 42 39 38 37 37 37 37 38 38 40 39 37 38 39 38 39 39 38 39 39 39 38 39 41
41 41 42 42 42 42 44 44 44 42 42 43 43 44 43 42 41 40 39 41 40 41 38 39 39 39 38 40 38 38 40 43 42 39 38 38 39 37 37 39 39 38 41 43 42 41 39 40 41 40 40 39 41 40 40 38 38 38 37 38 38 38 38 38 39 38 37 37 40 39 40 42 42 41
38 40 41 42 42 42 42 44 44 45 43 44 43 43 42 41 39 39 39 40 42 39 39 39 39 40 39 40 40 39 39 42 42 39 40 39 37 40 37 38 40 39 38 40 39 40 39 38 39 39 41 42 43 42 42 40 39 40 38 37 37 37 38 39 37 37 38 40 39 38 38 40 42 42
38 39 40 42 41 41 41 42 44 44 42 43 42 43 42 41 42 40 40 42 40 39 40 40 39 39 39 41 42 40 40 41 41 39 38 38 38 38 40 38 40 39 40 37 38 38 37 38 39 39 38 33 34 36 41 44 40 40 40 37 37 39 40 38 38 39 36 35 37 38 39 38 41 44
37 39 39 40 41 41 41 42 42 41 41 41 42 42 42 42 42 41 44 42 41 41 41 40 40 40 40 41 41 40 40 37 37 38 39 38 38 38 37 39 39 39 36 36 38 38 38 37 37 39 43 34 30 37 38 43 45 40 40 36 34 35 36 36 36 35 35 37 37 38 36 38 40 43
38 39 39 40 42 40 42 42 44 45 45 42 40 40 42 42 42 43 42 40 40 41 41 40 40 40 40 39 39 37 38 37 39 40 38 39 37 38 38 38 38 36 36 36 37 36 38 37 37 36 33 35 34 32 31 31 39 44 43 40 38 37 39 38 37 37 38 36 37 37 37 38 39 42
42 39 40 42 42 43 42 41 41 43 42 41 42 42 41 41 42 42 41 41 41 40 40 40 42 40 39 39 39 40 40 38 37 37 37 38 38 38 39 41 37 35 35 35 37 38 38 38 37 36 36 32 30 30 30 34 35 41 45 44 40 41 37 37 37 36 40 38 37 38 37 35 40 40
37 38 43 42 42 41 43 44 43 43 43 43 43 42 43 43 43 42 43 41 42 40 41 41 41 39 39 39 38 37 38 38 40 40 37 37 37 37 38 38 38 36 36 40 40 38 37 39 36 36 36 33 33 27 30 33 35 28 34 44 42 39 37 37 37 36 35 36 40 39 37 38 41 42
38 36 40 40 42 42 43 44 44 45 45 45 45 43 44 43 42 41 41 39 41 41 41 39 40 40 40 39 38 37 38 38 38 40 40 39 39 36 36 37 39 39 36 37 42 42 39 38 38 37 36 36 36 36 36 29 29 28 33 38 42 44 43 36 36 37 39 37 36 34 37 38 36 38
40 41 40 40 43 42 43 44 43 41 42 43 45 44 44 44 44 43 42 42 38 39 39 39 39 38 39 39 38 38 36 36 38 39 38 39 38 36 37 36 39 36 38 38 36 34 38 42 38 37 37 37 35 38 37 39 39 34 32 36 38 41 43 43 41 37 38 35 37 36 35 36 36 34
42 42 41 43 44 44 43 43 42 41 42 42 43 44 44 43 42 42 40 38 40 39 39 39 38 36 36 36 36 34 35 34 35 37 36 38 39 39 39 37 37 35 37 38 40 40 40 37 37 36 39 39 40 40 35 32 33 31 28 29 33 38 41 42 42 42 42 38 37 35 30 30 31 31
40 40 41 42 43 43 43 43 43 42 41 41 40 41 40 39 38 37 36 39 38 37 36 36 36 36 35 36 34 33 33 34 35 36 36 37 38 39 38 39 39 38 37 38 37 36 37 37 38 40 38 40 36 36 36 33 32 31 29 32 37 36 36 40 41 40 41 41 42 42 39 39 34 30
40 40 41 41 43 44 44 44 43 43 43 42 40 39 36 35 36 36 36 34 33 33 33 32 33 34 34 35 36 35 34 33 34 35 33 34 35 37 37 38 37 38 37 38 36 37 36 37 38 38 39 38 34 35 36 33 32 31 33 33 32 32 37 37 37 39 39 40 40 41 42 42 42 45
40 42 41 42 42 43 42 43 42 42 41 41 40 38 35 35 34 37 37 35 33 32 31 31 31 31 32 32 33 34 33 36 34 33 32 32 33 34 36 36 35 36 36 37 35 37 38 38 38 37 37 34 34 33 35 34 34 33 32 30 35 36 35 30 35 37 32 33 40 41 41 40 40 41
MSLP
1016.97 1016.97 1016.85 1016.77 1016.69 1016.69 1016.69 1016.69 1016.69 1016.69 1016.81 1016.89 1016.97 1017.09 1017.29 1017.53 1017.93 1018.09 1017.81 1017.33 1017.09 1016.25 1016.09 1016.29 1015.53 1015.33 1015.33 1015.37 1015.45 1015.53 1015.57 1015.49 1015.49 1015.65 1015.77 1015.77 1015.65 1015.49 1015.49 1015.57 1015.61 1015.61 1015.57 1015.61 1015.65 1015.69 1015.81 1015.89 1015.97 1016.09 1016.17 1016.29 1016.37 1016.45 1016.53 1016.57 1016.61 1016.69 1016.73 1016.81 1016.89 1017.01 1017.13 1017.29 1017.41 1017.53 1017.65 1017.77 1017.85 1017.93 1018.01 1018.09 1018.17 1018.21
1016.69 1016.61 1016.61 1016.65 1016.61 1016.45 1016.45 1016.37 1016.41 1016.53 1016.61 1016.69 1016.81 1016.85 1016.89 1017.05 1017.33 1017.57 1017.81 1017.29 1016.89 1016.37 1016.13 1015.93 1015.73 1015.29 1015.25 1015.25 1015.21 1015.25 1015.21 1015.09 1015.13 1015.29 1015.33 1015.41 1015.41 1015.25 1015.13 1015.09 1015.13 1015.13 1015.17 1015.21 1015.25 1015.25 1015.33 1015.41 1015.49 1015.57 1015.69 1015.81 1015.89 1015.93 1015.97 1016.05 1016.09 1016.17 1016.25 1016.37 1016.45 1016.57 1016.65 1016.81 1016.93 1017.09 1017.25 1017.37 1017.49 1017.61 1017.73 1017.81 1017.89 1017.97
1016.49 1016.45 1016.41 1016.41 1016.41 1016.37 1016.33 1016.29 1016.25 1016.21 1016.29 1016.33 1016.49 1016.65 1016.81 1016.89 1016.85 1017.13 1017.37 1017.53 1016.37 1016.45 1016.01 1015.81 1015.61 1015.41 1015.21 1015.25 1015.25 1015.13 1014.97 1014.81 1014.77 1014.81 1014.81 1014.73 1014.65 1014.73 1014.77 1014.69 1014.69 1014.73 1014.77 1014.81 1014.85 1014.89 1014.93 1014.97 1015.01 1015.05 1015.17 1015.25 1015.37 1015.45 1015.45 1015.53 1015.61 1015.73 1015.81 1015.97 1016.05 1016.17 1016.29 1016.37 1016.53 1016.69 1016.89 1017.05 1017.17 1017.33 1017.45 1017.57 1017.65 1017.69
1016.37 1016.37 1016.33 1016.21 1016.13 1016.05 1016.13 1016.17 1016.17 1016.17 1016.21 1016.25 1016.33 1016.41 1016.49 1016.61 1016.73 1016.89 1017.05 1017.17 1016.45 1016.05 1015.89 1015.65 1015.53 1015.41 1015.25 1015.01 1015.09 1014.81 1014.61 1014.49 1014.41 1014.41 1014.41 1014.29 1014.25 1014.41 1014.45 1014.41 1014.37 1014.37 1014.41 1014.41 1014.45 1014.53 1014.57 1014.57 1014.57 1014.57 1014.65 1014.73 1014.85 1014.93 1015.01 1015.09 1015.21 1015.33 1015.45 1015.57 1015.69 1015.77 1015.89 1016.01 1016.13 1016.33 1016.49 1016.69 1016.81 1016.97 1017.09 1017.17 1017.29 1017.33
1016.17 1016.13 1016.13 1016.01 1015.85 1015.89 1015.97 1015.89 1015.85 1015.89 1015.89 1015.97 1016.09 1016.13 1016.29 1016.37 1016.49 1016.69 1016.85 1016.85 1016.53 1015.89 1015.69 1015.65 1015.33 1015.09 1015.25 1014.97 1014.53 1014.53 1014.33 1014.21 1014.13 1014.17 1014.09 1014.05 1014.09 1014.09 1014.13 1014.05 1014.01 1014.05 1014.09 1014.05 1014.09 1014.21 1014.25 1014.25 1014.21 1014.17 1014.25 1014.37 1014.41 1014.45 1014.53 1014.61 1014.73 1014.85 1015.01 1015.13 1015.25 1015.37 1015.49 1015.57 1015.69 1015.85 1016.05 1016.25 1016.41 1016.57 1016.69 1016.81 1016.89 1016.97
1015.93 1015.89 1015.85 1015.73 1015.65 1015.65 1015.73 1015.65 1015.65 1015.61 1015.61 1015.69 1015.77 1015.81 1015.93 1016.01 1016.05 1016.21 1016.37 1016.41 1016.45 1016.01 1015.53 1015.37 1015.13 1015.13 1014.97 1015.01 1014.21 1014.49 1014.29 1014.13 1013.97 1013.93 1013.89 1013.85 1013.85 1013.85 1013.81 1013.85 1013.69 1013.57 1013.65 1013.73 1013.73 1013.81 1013.85 1013.89 1013.89 1013.89 1013.93 1013.97 1014.05 1014.09 1014.13 1014.21 1014.29 1014.41 1014.53 1014.65 1014.77 1014.93 1015.09 1015.21 1015.29 1015.45 1015.65 1015.81 1016.01 1016.17 1016.33 1016.45 1016.53 1016.65
1015.69 1015.85 1015.81 1015.61 1015.49 1015.53 1015.65 1015.57 1015.49 1015.41 1015.45 1015.41 1015.53 1015.45 1015.49 1015.61 1015.57 1015.65 1015.81 1015.93 1015.97 1015.93 1015.57 1015.29 1015.17 1014.93 1014.81 1014.81 1014.25 1014.01 1014.01 1013.85 1013.77 1013.77 1013.65 1013.57 1013.49 1013.45 1013.41 1013.49 1013.37 1013.21 1013.25 1013.29 1013.29 1013.37 1013.45 1013.49 1013.45 1013.45 1013.49 1013.49 1013.49 1013.53 1013.65 1013.73 1013.85 1013.93 1014.01 1014.09 1014.29 1014.45 1014.65 1014.85 1014.97 1015.09 1015.21 1015.37 1015.57 1015.77 1015.93 1016.09 1016.21 1016.37
1015.61 1015.65 1015.69 1015.49 1015.41 1015.41 1015.49 1015.41 1015.33 1015.25 1015.25 1015.29 1015.29 1015.25 1015.17 1015.25 1015.21 1015.21 1015.37 1015.49 1015.49 1015.37 1015.45 1015.01 1015.09 1014.57 1014.61 1014.29 1014.09 1013.93 1013.77 1013.77 1013.61 1013.49 1013.29 1013.25 1013.25 1013.05 1012.93 1012.93 1012.89 1012.73 1012.81 1012.89 1012.93 1012.93 1012.97 1012.89 1012.85 1012.89 1013.01 1013.09 1013.05 1013.01 1013.13 1013.21 1013.33 1013.41 1013.49 1013.65 1013.81 1014.01 1014.21 1014.41 1014.57 1014.73 1014.85 1015.01 1015.25 1015.45 1015.65 1015.81 1015.97 1016.09
1015.21 1015.29 1015.29 1015.09 1015.13 1015.25 1015.37 1015.17 1015.17 1015.05 1015.05 1014.97 1015.05 1015.01 1014.89 1014.93 1014.85 1014.85 1014.93 1015.01 1015.17 1015.25 1015.17 1014.73 1014.49 1014.41 1014.33 1014.09 1013.85 1013.69 1013.77 1013.53 1013.37 1013.17 1013.13 1012.93 1012.81 1012.69 1012.49 1012.45 1012.33 1012.21 1012.25 1012.49 1012.65 1012.73 1012.85 1012.85 1012.73 1012.61 1012.53 1012.53 1012.53 1012.57 1012.65 1012.73 1012.77 1012.85 1012.97 1013.17 1013.33 1013.49 1013.69 1013.93 1014.17 1014.37 1014.57 1014.77 1014.97 1015.17 1015.41 1015.61 1015.81 1015.97
1014.81 1014.85 1014.85 1014.81 1014.89 1014.97 1015.09 1014.93 1014.81 1014.81 1014.81 1014.77 1014.85 1014.77 1014.73 1014.65 1014.61 1014.65 1014.61 1014.77 1014.89 1014.97 1014.73 1014.61 1014.37 1014.29 1014.25 1013.97 1013.61 1013.21 1013.41 1013.53 1013.37 1013.09 1012.81 1012.69 1012.53 1012.41 1012.37 1012.21 1012.05 1011.93 1011.89 1011.97 1012.01 1012.09 1012.21 1012.21 1012.29 1012.41 1012.45 1012.41 1012.37 1012.37 1012.37 1012.33 1012.25 1012.33 1012.45 1012.61 1012.81 1013.01 1013.25 1013.57 1013.85 1014.13 1014.41 1014.65 1014.85 1015.05 1015.21 1015.41 1015.57 1015.77
1014.53 1014.53 1014.49 1014.41 1014.37 1014.41 1014.41 1014.45 1014.45 1014.45 1014.49 1014.53 1014.53 1014.49 1014.53 1014.57 1014.65 1014.65 1014.61 1014.65 1014.73 1014.73 1014.61 1014.33 1014.21 1014.09 1013.89 1013.89 1013.45 1012.85 1013.13 1013.13 1013.09 1012.97 1012.81 1012.73 1012.25 1012.17 1012.17 1012.05 1011.77 1011.65 1011.53 1011.41 1011.49 1011.57 1011.53 1011.49 1011.61 1011.65 1011.69 1011.81 1011.85 1011.85 1011.89 1011.85 1011.89 1011.97 1012.17 1012.45 1012.65 1012.81 1013.05 1013.33 1013.57 1013.85 1014.17 1014.45 1014.69 1014.89 1015.05 1015.17 1015.37 1015.57
1014.33 1014.25 1014.13 1013.97 1013.89 1013.85 1013.85 1013.89 1014.01 1014.17 1014.25 1014.25 1014.25 1014.17 1014.21 1014.25 1014.41 1014.53 1014.49 1014.45 1014.53 1014.57 1014.49 1014.29 1013.77 1013.57 1013.49 1013.41 1013.29 1013.09 1013.17 1013.13 1012.93 1012.77 1012.77 1012.69 1012.21 1011.89 1011.85 1011.81 1011.65 1011.37 1011.41 1011.41 1011.25 1010.93 1010.85 1010.93 1011.05 1011.17 1011.17 1011.25 1011.37 1011.45 1011.45 1011.49 1011.61 1011.65 1011.77 1012.05 1012.33 1012.53 1012.73 1012.97 1013.25 1013.57 1013.85 1014.17 1014.41 1014.65 1014.85 1014.97 1015.13 1015.29
1014.25 1014.09 1013.89 1013.69 1013.53 1013.41 1013.41 1013.41 1013.41 1013.49 1013.57 1013.85 1013.93 1013.85 1013.97 1014.05 1014.13 1014.33 1014.33 1014.29 1014.13 1014.17 1014.21 1013.93 1013.69 1013.57 1013.45 1013.17 1012.97 1012.89 1012.89 1012.81 1012.37 1011.97 1012.21 1012.21 1011.93 1011.65 1011.77 1011.57 1011.49 1011.37 1011.33 1011.25 1011.21 1011.01 1010.73 1010.77 1010.77 1010.73 1010.89 1010.85 1010.97 1011.13 1011.25 1011.41 1011.37 1011.53 1011.85 1012.29 1012.61 1012.65 1012.69 1012.73 1012.97 1013.29 1013.61 1013.89 1014.17 1014.45 1014.61 1014.73 1014.89 1015.05
1014.17 1013.97 1013.77 1013.49 1013.29 1013.21 1013.13 1013.13 1013.17 1013.17 1013.21 1013.21 1013.25 1013.33 1013.53 1013.73 1013.89 1014.05 1014.13 1014.09 1013.93 1013.77 1013.69 1013.45 1013.25 1013.25 1013.09 1012.69 1012.49 1012.45 1012.21 1012.01 1012.05 1012.17 1012.21 1012.33 1012.05 1012.09 1011.89 1011.53 1011.17 1011.01 1011.17 1011.09 1011.01 1010.65 1010.53 1010.69 1010.61 1010.57 1010.61 1010.61 1010.77 1010.85 1011.01 1011.01 1011.13 1011.45 1011.73 1012.17 1012.25 1012.33 1012.53 1012.57 1012.73 1013.05 1013.41 1013.73 1014.01 1014.25 1014.37 1014.45 1014.61 1014.73
1014.13 1013.93 1013.77 1013.57 1013.37 1013.21 1013.09 1013.01 1013.01 1013.09 1013.21 1013.29 1013.29 1013.21 1013.25 1013.29 1013.45 1013.57 1013.69 1013.53 1013.37 1013.37 1013.13 1012.89 1012.93 1012.89 1012.65 1012.25 1012.05 1012.05 1011.89 1011.81 1011.77 1011.77 1011.85 1012.01 1012.13 1011.97 1012.01 1011.69 1010.69 1010.49 1010.65 1010.93 1010.89 1010.69 1010.45 1010.57 1010.49 1010.25 1010.37 1010.41 1010.61 1010.65 1010.65 1010.81 1010.93 1011.13 1011.33 1011.61 1011.93 1012.25 1012.33 1012.29 1012.49 1012.89 1013.29 1013.57 1013.81 1014.01 1014.13 1014.21 1014.33 1014.41
1014.05 1013.97 1013.73 1013.57 1013.41 1013.25 1013.13 1012.97 1012.89 1012.85 1012.85 1012.93 1012.97 1013.01 1013.01 1013.01 1012.97 1013.01 1013.09 1012.97 1012.81 1012.73 1012.77 1012.69 1012.57 1012.57 1012.29 1011.97 1011.89 1011.73 1011.77 1011.61 1011.61 1011.61 1011.61 1011.77 1011.73 1011.81 1011.81 1011.61 1011.33 1010.57 1010.73 1010.73 1010.85 1010.49 1010.41 1010.45 1010.41 1010.29 1010.29 1010.53 1010.57 1010.65 1010.65 1010.69 1010.85 1011.13 1011.29 1011.49 1011.77 1012.01 1012.01 1012.05 1012.41 1012.77 1013.09 1013.33 1013.53 1013.65 1013.77 1013.89 1013.93 1014.01
1014.01 1013.89 1013.77 1013.61 1013.45 1013.29 1013.13 1013.09 1013.09 1013.05 1012.97 1012.89 1012.89 1012.85 1012.85 1012.89 1012.85 1012.69 1012.73 1012.89 1012.97 1012.77 1012.77 1012.65 1012.41 1012.21 1011.89 1011.89 1011.57 1011.49 1011.41 1011.41 1011.45 1011.45 1011.41 1011.37 1011.41 1011.37 1011.37 1011.17 1010.89 1010.57 1010.69 1010.81 1010.81 1010.57 1010.25 1010.41 1010.33 1010.45 1010.61 1010.65 1010.69 1010.73 1010.73 1010.77 1010.89 1011.01 1011.29 1011.61 1011.81 1011.77 1011.81 1012.09 1012.41 1012.65 1012.81 1013.01 1013.21 1013.29 1013.41 1013.49 1013.57 1013.73
1014.09 1013.97 1013.93 1013.73 1013.53 1013.37 1013.41 1013.69 1013.77 1013.65 1013.45 1013.21 1012.97 1012.97 1012.85 1012.73 1012.61 1012.53 1012.41 1012.37 1012.41 1012.77 1012.65 1012.25 1012.21 1011.73 1012.01 1011.61 1011.17 1011.01 1011.21 1011.29 1011.29 1011.33 1011.17 1011.17 1011.25 1011.29 1011.01 1010.73 1010.85 1010.73 1010.77 1010.77 1010.57 1010.33 1010.21 1010.57 1010.61 1010.77 1010.93 1010.85 1010.93 1011.05 1011.13 1011.13 1011.21 1011.33 1011.37 1011.41 1011.49 1011.61 1011.85 1012.09 1012.25 1012.41 1012.57 1012.77 1012.93 1013.01 1013.09 1013.17 1013.29 1013.49
1014.41 1014.41 1014.25 1014.09 1014.01 1013.93 1014.09 1014.45 1014.41 1014.01 1013.81 1013.57 1013.21 1012.93 1012.73 1012.53 1012.41 1012.37 1012.25 1012.09 1012.09 1012.09 1012.17 1012.05 1011.85 1011.73 1011.69 1011.49 1011.21 1011.09 1011.09 1010.93 1010.85 1010.97 1010.97 1011.01 1011.01 1010.89 1010.81 1010.77 1010.81 1010.85 1010.97 1010.93 1011.05 1010.65 1010.93 1011.05 1011.13 1011.37 1011.37 1011.21 1011.13 1011.13 1011.17 1011.17 1011.25 1011.33 1011.33 1011.37 1011.45 1011.57 1011.77 1011.93 1012.09 1012.29 1012.41 1012.53 1012.65 1012.73 1012.81 1012.89 1013.13 1013.25
1014.89 1014.85 1014.81 1014.65 1014.53 1014.41 1014.41 1014.65 1014.61 1014.49 1014.21 1013.73 1013.29 1013.01 1012.77 1012.61 1012.53 1012.49 1012.41 1012.57 1012.45 1012.41 1012.25 1012.13 1012.13 1012.17 1012.17 1012.01 1011.93 1011.85 1011.69 1011.45 1011.21 1010.97 1010.89 1010.97 1011.05 1011.09 1011.01 1010.93 1010.73 1011.01 1011.21 1011.17 1011.13 1011.17 1011.41 1011.21 1011.05 1011.41 1011.49 1011.41 1011.41 1011.41 1011.41 1011.45 1011.49 1011.49 1011.53 1011.57 1011.65 1011.77 1011.93 1012.05 1012.13 1012.21 1012.33 1012.45 1012.57 1012.65 1012.77 1012.93 1013.01 1013.01
1015.09 1015.01 1015.01 1015.01 1014.97 1014.85 1014.81 1014.81 1014.65 1014.37 1014.13 1013.81 1013.53 1013.29 1013.09 1012.89 1012.65 1012.77 1012.77 1012.77 1012.81 1012.77 1012.73 1012.73 1012.69 1012.61 1012.41 1012.29 1012.17 1012.05 1011.93 1011.77 1011.41 1011.05 1010.77 1010.85 1011.01 1011.05 1011.13 1011.09 1011.01 1011.37 1011.37 1011.29 1011.37 1011.41 1011.69 1011.73 1011.49 1011.41 1011.53 1011.61 1011.61 1011.61 1011.61 1011.53 1011.49 1011.49 1011.49 1011.53 1011.57 1011.61 1011.73 1011.81 1011.97 1012.09 1012.21 1012.33 1012.41 1012.45 1012.53 1012.61 1012.65 1012.61
1015.37 1015.21 1015.05 1015.17 1015.21 1015.13 1015.09 1014.93 1014.61 1014.33 1013.97 1013.85 1013.73 1013.57 1013.33 1013.17 1013.09 1013.17 1012.93 1012.77 1012.89 1012.89 1012.89 1012.85 1012.81 1012.73 1012.61 1012.45 1012.29 1012.17 1012.05 1011.85 1011.53 1011.21 1011.21 1011.29 1011.21 1011.21 1011.29 1011.29 1011.45 1011.41 1011.37 1011.49 1011.45 1011.45 1012.13 1011.97 1011.85 1011.65 1011.65 1011.65 1011.73 1011.73 1011.69 1011.61 1011.53 1011.49 1011.49 1011.45 1011.49 1011.53 1011.61 1011.69 1011.77 1011.89 1012.01 1012.09 1012.09 1012.05 1012.01 1012.05 1012.17 1012.29
1015.53 1015.49 1015.33 1015.29 1015.33 1015.29 1015.21 1014.97 1014.69 1014.45 1014.17 1014.05 1013.97 1013.85 1013.61 1013.49 1013.49 1013.61 1013.45 1013.37 1013.37 1013.25 1013.17 1013.13 1012.97 1012.81 1012.73 1012.65 1012.57 1012.49 1012.33 1012.13 1011.89 1011.77 1011.69 1011.57 1011.29 1011.33 1011.41 1011.33 1011.29 1011.33 1011.49 1011.61 1011.53 1011.53 1011.93 1011.85 1012.09 1011.89 1011.61 1011.73 1012.05 1012.13 1012.05 1011.85 1011.73 1011.65 1011.57 1011.53 1011.49 1011.49 1011.49 1011.53 1011.57 1011.61 1011.65 1011.61 1011.61 1011.61 1011.61 1011.65 1011.89 1012.01
1015.57 1015.57 1015.49 1015.41 1015.37 1015.25 1015.09 1014.93 1014.73 1014.57 1014.41 1014.21 1014.17 1014.01 1013.93 1013.89 1013.93 1013.93 1013.85 1013.73 1013.77 1013.81 1013.77 1013.77 1013.69 1013.61 1013.41 1013.17 1013.01 1012.85 1012.65 1012.45 1012.29 1012.17 1012.05 1011.93 1011.73 1011.49 1011.49 1011.45 1011.41 1011.49 1011.85 1011.85 1011.77 1011.61 1012.05 1011.97 1012.01 1012.21 1012.09 1012.09 1012.01 1012.09 1012.13 1011.81 1011.73 1011.73 1011.61 1011.61 1011.53 1011.41 1011.41 1011.41 1011.45 1011.49 1011.53 1011.57 1011.53 1011.49 1011.45 1011.41 1011.65 1011.89
1015.65 1015.57 1015.53 1015.49 1015.49 1015.49 1015.29 1014.93 1014.69 1014.69 1014.57 1014.45 1014.29 1014.29 1014.17 1014.21 1014.21 1014.05 1014.05 1014.09 1014.05 1014.17 1014.17 1014.13 1014.05 1013.97 1013.77 1013.61 1013.41 1013.25 1013.05 1012.89 1012.69 1012.53 1012.33 1012.17 1012.05 1011.85 1011.69 1011.73 1011.85 1012.09 1012.17 1012.01 1011.85 1011.65 1011.89 1012.09 1012.17 1012.33 1012.33 1012.41 1012.65 1012.53 1012.21 1012.13 1011.73 1011.69 1011.57 1011.49 1011.37 1011.29 1011.29 1011.29 1011.29 1011.29 1011.29 1011.25 1011.21 1011.13 1011.05 1011.05 1011.17 1011.37
1015.65 1015.69 1015.65 1015.53 1015.49 1015.41 1015.33 1015.33 1014.97 1014.65 1014.61 1014.53 1014.41 1014.37 1014.33 1014.21 1014.01 1013.97 1014.13 1014.25 1014.33 1014.37 1014.41 1014.37 1014.29 1014.25 1014.13 1013.93 1013.73 1013.49 1013.29 1013.21 1013.09 1012.93 1012.69 1012.45 1012.29 1012.13 1012.01 1011.89 1011.89 1011.93 1012.01 1012.01 1011.97 1011.85 1011.97 1012.17 1012.25 1012.33 1012.57 1012.49 1012.57 1012.77 1012.33 1011.77 1011.73 1011.69 1011.57 1011.53 1011.53 1011.37 1011.29 1011.25 1011.21 1011.17 1011.17 1011.09 1010.97 1010.93 1010.85 1010.81 1010.81 1010.97
1015.53 1015.65 1015.61 1015.53 1015.45 1015.37 1015.33 1015.21 1015.25 1015.05 1014.65 1014.49 1014.41 1014.37 1014.13 1013.97 1013.97 1013.97 1014.05 1014.25 1014.33 1014.49 1014.57 1014.49 1014.33 1014.45 1014.41 1014.01 1013.45 1013.41 1013.29 1013.25 1013.17 1013.01 1012.89 1012.73 1012.57 1012.41 1012.33 1012.21 1012.13 1012.05 1012.01 1012.01 1011.97 1011.97 1012.01 1012.21 1012.53 1012.41 1012.61 1012.77 1012.61 1012.53 1012.57 1012.25 1011.61 1011.73 1011.41 1011.37 1011.57 1011.57 1011.49 1011.41 1011.33 1011.33 1011.29 1011.21 1011.13 1011.09 1010.97 1010.89 1010.77 1010.69
1015.69 1015.53 1015.49 1015.45 1015.45 1015.37 1015.25 1015.21 1015.17 1015.13 1014.97 1014.57 1014.37 1014.29 1014.21 1014.13 1014.13 1014.09 1014.01 1013.97 1013.97 1014.01 1013.81 1013.57 1013.61 1013.57 1013.89 1013.89 1013.45 1013.29 1013.45 1013.37 1013.25 1013.09 1012.89 1012.81 1012.73 1012.61 1012.45 1012.33 1012.17 1012.09 1012.01 1011.97 1012.05 1012.09 1012.13 1012.21 1012.41 1012.53 1012.61 1012.69 1012.61 1012.25 1012.01 1012.49 1012.53 1012.33 1012.09 1011.73 1011.45 1011.41 1011.49 1011.53 1011.41 1011.33 1011.25 1011.25 1011.13 1011.09 1010.97 1010.81 1010.77 1010.73
1015.45 1015.41 1015.37 1015.25 1015.13 1015.05 1015.05 1015.01 1015.01 1014.89 1014.85 1014.85 1014.69 1014.41 1014.29 1014.21 1014.09 1013.93 1013.81 1013.89 1013.89 1013.29 1013.37 1013.49 1013.65 1013.57 1013.45 1013.49 1013.57 1013.61 1013.65 1013.53 1013.25 1013.01 1012.77 1012.69 1012.65 1012.61 1012.49 1012.33 1012.21 1012.09 1011.97 1011.97 1012.05 1012.09 1012.13 1012.21 1012.33 1012.53 1012.65 1012.77 1012.69 1012.81 1012.81 1012.45 1012.65 1012.25 1012.33 1012.21 1011.49 1011.45 1011.53 1011.61 1011.57 1011.25 1011.13 1011.09 1011.05 1011.05 1010.97 1010.97 1010.81 1010.77
1015.21 1015.13 1014.97 1014.89 1014.73 1014.61 1014.57 1014.65 1014.65 1014.61 1014.61 1014.65 1014.73 1014.69 1014.49 1014.33 1014.09 1013.89 1013.69 1013.65 1013.41 1013.41 1013.65 1013.65 1013.41 1013.41 1013.49 1013.41 1013.49 1013.65 1013.69 1013.37 1012.97 1013.01 1012.81 1012.65 1012.41 1012.53 1012.45 1012.13 1011.97 1012.01 1012.01 1012.05 1012.17 1012.21 1012.17 1012.21 1012.41 1012.57 1012.65 1012.81 1012.85 1012.73 1012.77 1012.77 1012.29 1012.21 1012.49 1012.33 1012.05 1011.69 1011.61 1011.53 1011.33 1011.33 1011.21 1011.09 1011.05 1010.97 1010.93 1011.01 1010.89 1010.77
1015.01 1014.93 1014.89 1014.81 1014.69 1014.61 1014.53 1014.61 1014.57 1014.49 1014.37 1014.37 1014.37 1014.45 1014.49 1014.37 1014.17 1014.05 1013.77 1013.53 1013.45 1013.49 1013.49 1013.45 1013.49 1013.49 1013.53 1013.61 1013.37 1012.85 1012.97 1012.93 1012.89 1013.13 1012.97 1012.77 1012.61 1012.65 1012.69 1012.49 1011.93 1011.73 1011.77 1011.89 1012.09 1012.21 1012.25 1012.37 1012.53 1012.61 1012.61 1012.65 1012.81 1012.69 1012.73 1012.93 1012.61 1012.25 1012.05 1012.21 1012.17 1011.61 1011.45 1011.53 1011.37 1011.29 1011.37 1011.25 1011.13 1011.01 1010.93 1010.81 1010.69 1010.65
1015.25 1014.97 1014.77 1014.69 1014.57 1014.37 1014.17 1014.17 1014.33 1014.25 1014.17 1014.17 1014.17 1014.17 1014.21 1014.17 1014.13 1014.01 1014.01 1014.01 1013.73 1013.45 1013.49 1013.57 1013.61 1013.41 1013.29 1012.97 1012.93 1012.97 1012.77 1012.69 1012.81 1013.05 1012.85 1012.77 1012.57 1012.69 1012.69 1012.25 1011.85 1012.05 1011.81 1011.57 1011.77 1012.09 1012.25 1012.49 1012.57 1012.57 1012.53 1012.53 1012.29 1012.49 1012.85 1012.77 1012.53 1012.37 1012.25 1011.93 1011.97 1011.85 1011.85 1011.61 1011.45 1011.37 1011.41 1011.33 1010.97 1010.89 1010.81 1010.77 1010.57 1010.33
1015.01 1014.85 1014.57 1014.29 1014.17 1014.13 1014.05 1013.89 1013.85 1013.93 1013.89 1013.73 1013.77 1013.77 1013.85 1013.93 1013.93 1013.85 1013.77 1013.49 1013.17 1013.01 1013.17 1013.01 1013.01 1012.97 1012.97 1012.85 1012.97 1013.05 1012.73 1012.37 1012.41 1012.89 1012.81 1012.77 1012.61 1012.65 1012.73 1012.41 1012.25 1011.93 1011.69 1011.21 1011.17 1011.77 1012.41 1012.41 1012.49 1012.53 1012.57 1012.57 1012.57 1012.57 1012.57 1012.41 1012.13 1012.17 1011.97 1011.81 1011.93 1011.73 1011.49 1011.41 1011.53 1011.37 1011.45 1011.13 1011.01 1010.97 1010.69 1010.41 1010.33 1010.21
1014.89 1014.49 1014.29 1014.33 1014.37 1014.17 1014.09 1013.93 1013.69 1013.49 1013.49 1013.49 1013.49 1013.45 1013.49 1013.69 1013.69 1013.61 1013.53 1013.41 1013.09 1013.09 1013.09 1012.89 1012.85 1012.73 1012.81 1012.73 1012.65 1012.73 1012.65 1012.33 1012.21 1012.65 1012.73 1012.49 1012.69 1012.45 1012.41 1012.37 1012.05 1012.13 1012.21 1011.61 1011.45 1011.33 1012.33 1012.41 1012.53 1012.45 1012.41 1012.33 1012.33 1012.41 1012.41 1012.57 1011.93 1011.89 1012.21 1012.13 1012.13 1011.81 1011.37 1011.33 1011.33 1011.41 1011.45 1011.25 1011.13 1010.89 1010.65 1010.37 1010.05 1009.89
1014.77 1014.61 1014.49 1014.37 1014.37 1014.33 1014.29 1014.13 1013.81 1013.53 1013.41 1013.25 1013.17 1013.17 1013.17 1013.25 1013.25 1013.25 1013.29 1013.05 1013.01 1013.09 1013.05 1012.97 1012.89 1012.81 1012.77 1012.61 1012.57 1012.57 1012.53 1012.53 1012.13 1012.13 1012.65 1012.73 1012.65 1012.37 1012.25 1012.29 1012.09 1011.77 1011.89 1011.61 1011.01 1011.13 1011.89 1012.01 1012.13 1012.01 1012.09 1012.17 1011.81 1011.89 1012.09 1012.05 1012.17 1011.61 1011.69 1011.81 1011.85 1011.73 1011.25 1011.17 1011.25 1011.17 1011.25 1011.29 1011.25 1010.85 1010.61 1010.33 1009.97 1009.61
1014.41 1014.81 1014.69 1014.37 1014.05 1014.05 1014.09 1013.97 1013.73 1013.33 1013.09 1013.09 1013.25 1013.33 1013.25 1013.01 1012.89 1013.01 1012.77 1012.77 1012.93 1012.77 1012.77 1012.65 1012.61 1012.65 1012.65 1012.65 1012.65 1012.69 1012.61 1012.65 1012.45 1012.21 1012.09 1012.17 1012.17 1012.13 1012.37 1012.17 1012.21 1011.85 1011.97 1011.45 1011.05 1011.45 1012.05 1011.85 1011.69 1011.29 1011.17 1011.41 1011.37 1011.17 1011.05 1011.61 1011.77 1011.69 1011.65 1011.29 1011.29 1011.37 1011.21 1011.05 1011.09 1011.25 1011.13 1010.69 1010.89 1010.93 1010.69 1010.33 1010.05 1009.69
1013.89 1014.33 1014.33 1014.13 1014.13 1014.17 1014.09 1013.93 1013.53 1013.17 1013.09 1013.05 1013.13 1013.41 1013.41 1013.13 1012.73 1012.69 1013.13 1013.29 1013.13 1013.09 1013.21 1013.25 1013.13 1013.17 1013.29 1013.21 1013.01 1012.73 1012.57 1012.45 1012.17 1012.17 1011.97 1011.97 1012.01 1012.17 1011.81 1011.41 1011.33 1011.45 1011.45 1011.21 1011.57 1011.81 1011.81 1011.45 1011.69 1011.25 1011.25 1011.45 1011.53 1011.57 1011.33 1011.45 1011.65 1011.61 1011.61 1011.29 1011.13 1011.13 1010.97 1011.01 1011.05 1010.77 1010.65 1010.85 1010.57 1010.65 1010.45 1010.33 1009.97 1009.57
1013.49 1013.85 1013.77 1013.81 1013.89 1014.05 1014.09 1013.97 1013.77 1013.65 1013.69 1013.69 1013.61 1013.41 1013.33 1013.25 1013.17 1013.13 1013.05 1012.89 1012.85 1012.89 1012.89 1012.85 1013.09 1013.09 1013.01 1012.85 1012.57 1012.41 1012.37 1012.57 1012.57 1012.09 1011.81 1011.81 1011.81 1011.53 1011.33 1011.01 1011.21 1011.53 1011.09 1011.17 1011.37 1011.41 1011.73 1011.25 1011.13 1011.45 1011.29 1011.21 1011.25 1011.53 1011.33 1011.13 1011.21 1011.05 1011.29 1011.37 1011.21 1010.81 1011.21 1011.09 1010.93 1010.61 1010.25 1010.37 1010.37 1010.17 1010.29 1010.13 1009.77 1009.49
1013.41 1013.53 1013.57 1013.57 1013.73 1013.69 1013.65 1013.81 1013.89 1013.97 1013.93 1013.85 1013.77 1013.81 1013.81 1013.73 1013.65 1013.49 1013.41 1013.49 1013.49 1013.45 1013.33 1013.21 1013.25 1013.37 1013.33 1013.13 1012.85 1012.57 1012.49 1012.33 1012.05 1012.09 1011.97 1011.77 1011.89 1011.81 1011.53 1011.21 1011.17 1011.37 1011.53 1010.85 1011.05 1011.01 1011.21 1011.25 1011.17 1011.13 1011.29 1011.05 1011.05 1011.01 1011.01 1010.89 1010.85 1010.69 1010.89 1011.09 1011.01 1010.81 1010.89 1010.85 1010.61 1010.37 1010.29 1010.17 1009.85 1010.01 1010.01 1009.93 1009.69 1009.41
1013.29 1013.57 1013.57 1013.57 1013.65 1013.73 1013.69 1013.73 1013.69 1013.69 1013.53 1013.49 1013.61 1013.77 1013.69 1013.69 1013.81 1013.89 1014.05 1014.05 1013.89 1013.81 1013.73 1013.77 1013.73 1013.49 1013.37 1013.37 1013.29 1013.25 1013.13 1013.05 1012.89 1012.57 1012.29 1012.09 1012.05 1012.01 1011.97 1011.77 1011.09 1011.05 1011.25 1010.81 1010.77 1010.65 1010.77 1010.85 1011.25 1011.01 1011.01 1010.93 1010.81 1011.01 1011.37 1011.33 1011.13 1011.17 1010.89 1010.77 1010.85 1010.69 1010.41 1010.69 1010.53 1010.21 1010.05 1009.89 1010.09 1010.17 1009.69 1009.69 1009.21 1009.01
1013.33 1013.61 1013.73 1013.77 1013.77 1013.69 1013.69 1013.73 1013.81 1013.77 1013.77 1013.69 1013.61 1013.81 1013.97 1014.05 1014.05 1014.17 1014.25 1014.25 1014.21 1014.09 1014.01 1014.01 1013.89 1013.81 1013.81 1013.77 1013.73 1013.49 1013.17 1013.17 1013.09 1012.93 1012.77 1012.49 1012.01 1011.77 1011.81 1011.65 1011.17 1011.49 1011.37 1010.89 1010.85 1010.77 1010.49 1010.33 1010.61 1010.93 1011.01 1010.97 1011.25 1011.49 1011.13 1010.69 1010.53 1010.33 1010.29 1010.13 1010.25 1010.41 1010.33 1010.45 1010.25 1010.21 1009.97 1009.73 1009.81 1009.69 1009.61 1009.33 1009.33 1009.17
1013.53 1013.69 1013.81 1013.81 1013.73 1013.77 1013.73 1013.77 1013.81 1013.81 1013.81 1013.81 1013.73 1013.85 1014.05 1014.17 1014.33 1014.45 1014.45 1014.41 1014.41 1014.33 1014.21 1014.13 1014.13 1014.13 1014.09 1014.13 1014.01 1013.85 1013.65 1013.61 1013.49 1013.21 1013.05 1012.81 1012.45 1012.05 1011.81 1011.81 1011.61 1011.45 1011.29 1011.13 1011.01 1010.93 1010.77 1011.09 1011.05 1010.89 1010.85 1010.93 1010.97 1010.69 1010.69 1010.69 1010.41 1010.33 1010.21 1010.17 1009.93 1010.13 1010.13 1009.97 1010.01 1009.97 1009.81 1009.65 1009.41 1009.29 1009.29 1009.25 1009.53 1009.09
1013.69 1013.69 1013.77 1013.81 1013.77 1013.81 1013.81 1013.81 1013.77 1013.77 1013.85 1013.89 1013.89 1014.01 1014.17 1014.37 1014.49 1014.53 1014.57 1014.57 1014.65 1014.61 1014.53 1014.53 1014.45 1014.33 1014.29 1014.25 1014.21 1014.17 1014.01 1013.89 1013.77 1013.57 1013.33 1013.09 1012.85 1012.53 1012.21 1012.09 1012.01 1011.85 1011.77 1011.49 1011.37 1011.33 1011.05 1010.89 1010.89 1010.69 1010.73 1010.61 1010.41 1010.37 1010.21 1010.21 1010.29 1010.17 1010.25 1010.01 1009.81 1009.77 1009.89 1009.97 1009.93 1009.69 1009.53 1009.41 1009.25 1009.01 1008.97 1008.93 1009.13 1009.09
1013.57 1013.65 1013.73 1013.77 1013.69 1013.73 1013.77 1013.77 1013.81 1013.89 1013.93 1014.01 1014.13 1014.25 1014.29 1014.33 1014.53 1014.73 1014.77 1014.81 1014.77 1014.77 1014.85 1014.73 1014.69 1014.61 1014.57 1014.49 1014.37 1014.25 1014.25 1014.17 1014.05 1013.81 1013.49 1013.25 1013.13 1012.93 1012.73 1012.49 1012.37 1012.25 1012.17 1012.09 1011.73 1011.49 1011.53 1011.29 1011.21 1011.29 1011.05 1010.69 1010.77 1010.61 1010.25 1010.21 1010.21 1010.13 1010.13 1010.25 1010.09 1009.97 1009.57 1009.37 1009.25 1009.13 1009.09 1009.05 1008.93 1008.81 1008.65 1008.69 1008.57 1008.25
1013.49 1013.49 1013.57 1013.65 1013.65 1013.65 1013.77 1013.81 1013.85 1013.85 1013.81 1013.89 1014.01 1014.25 1014.53 1014.65 1014.73 1014.81 1014.89 1014.89 1014.85 1014.81 1014.69 1014.53 1014.53 1014.61 1014.61 1014.57 1014.41 1014.33 1014.41 1014.41 1014.21 1014.01 1013.81 1013.45 1013.25 1013.05 1012.85 1012.77 1012.57 1012.49 1012.45 1012.57 1012.17 1011.81 1011.89 1011.69 1011.81 1011.81 1011.57 1011.41 1011.53 1011.33 1011.09 1011.09 1010.85 1010.57 1010.53 1010.41 1010.05 1010.01 1009.81 1009.73 1009.17 1008.85 1008.77 1008.61 1008.33 1008.21 1008.33 1008.41 1008.37 1008.17
Wind_Speed
2 3 3 4 4 4 4 3 4 5 3 5 5 6 6 5 4 4 4 5 4 4 4 2 3 2 4 5 6 6 7 10 12 8 9 10 10 14 20 21 22 23 24 25 25 25 24 23 23 23 22 22 20 20 21 21 21 21 20 20 18 17 16 15 16 16 15 14 16 16 15 15 14 14
2 2 2 2 3 3 2 3 2 3 3 4 5 5 5 6 6 4 5 7 4 5 3 3 4 2 3 1 1 3 5 10 11 8 9 10 10 16 19 20 21 23 23 23 23 24 25 24 24 23 22 22 22 22 22 22 22 22 21 18 16 16 15 16 17 17 17 16 17 17 16 15 14 14
4 4 4 3 3 4 4 4 4 4 3 4 3 4 4 5 4 5 4 5 5 4 5 4 4 4 3 2 3 4 5 6 8 8 9 10 15 19 16 20 21 21 22 22 22 22 22 24 25 24 24 23 24 23 23 22 21 20 19 17 16 16 15 17 18 18 18 18 17 17 16 15 14 14
4 4 5 5 6 5 4 4 5 4 4 4 4 4 4 5 5 4 5 7 11 4 5 5 5 6 8 7 6 7 5 6 10 6 7 10 13 12 10 16 20 20 21 22 22 21 20 22 24 25 25 24 24 23 21 20 19 18 18 17 16 15 15 17 18 19 18 18 18 18 17 16 15 15
5 6 6 7 7 5 4 6 5 5 6 5 6 5 4 6 4 5 5 6 9 7 4 6 7 5 3 6 5 6 6 6 4 5 5 6 6 8 8 10 15 19 20 21 21 21 21 21 22 22 22 21 21 20 19 19 19 18 18 18 17 17 17 18 19 19 19 19 19 19 18 16 16 15
6 6 7 8 8 5 6 6 6 7 7 6 6 6 6 7 7 6 6 7 5 11 6 7 5 6 3 7 6 5 8 8 6 6 5 5 6 7 7 8 9 16 18 19 20 20 21 20 21 21 21 20 19 19 19 18 18 18 19 19 18 17 17 17 19 20 20 19 19 19 18 17 16 15
7 6 6 8 8 5 5 7 7 6 7 6 6 7 6 7 8 7 7 6 7 8 9 6 7 6 4 5 10 7 6 6 6 6 6 6 6 6 7 8 7 12 16 18 20 21 20 21 22 22 22 22 21 21 20 19 18 18 19 19 18 18 17 17 18 20 20 20 19 18 18 17 15 13
6 7 6 8 8 6 6 7 7 7 6 6 7 7 7 7 8 8 6 8 8 7 8 6 6 7 5 7 6 7 6 7 7 7 7 4 6 7 7 8 8 11 15 17 19 20 21 22 23 22 22 22 22 21 21 20 20 19 19 18 18 17 17 17 17 18 19 19 16 15 15 13 11 12
8 8 8 9 8 6 7 8 7 7 7 8 7 8 7 7 8 7 6 8 7 7 9 8 5 6 6 6 7 6 7 8 7 7 7 8 7 8 7 6 8 12 14 13 16 17 18 19 21 22 21 22 22 21 21 21 20 21 20 19 18 17 17 16 16 16 16 15 13 12 11 9 8 10
8 8 9 9 8 7 8 9 8 7 8 7 7 8 8 7 7 7 7 6 6 7 9 8 8 5 7 7 7 7 5 7 8 8 8 6 7 7 7 6 7 5 5 5 8 11 14 18 21 21 20 20 21 20 20 20 21 21 20 19 18 17 16 15 15 14 13 13 12 11 10 10 10 11
7 8 8 8 9 9 9 9 9 8 7 6 7 7 7 6 4 6 6 5 6 7 8 8 8 8 6 7 10 8 4 7 7 8 8 7 8 5 7 7 6 5 7 8 9 8 10 12 11 16 20 21 22 21 21 21 21 20 17 16 16 15 15 15 14 13 12 12 11 11 11 10 10 10
7 8 9 9 9 9 8 8 7 6 7 5 6 7 6 6 4 5 6 6 6 6 7 8 10 7 7 5 7 5 1 3 6 6 7 9 10 9 5 7 8 5 5 7 6 9 11 10 12 14 15 16 18 20 20 20 18 18 18 17 17 17 15 14 13 13 12 12 11 11 10 10 10 11
6 7 7 8 8 8 9 11 10 9 9 6 7 7 6 6 6 6 8 8 7 8 8 9 8 8 8 8 8 7 6 8 11 8 5 8 9 8 6 7 6 6 6 5 5 7 8 7 7 7 6 8 9 11 14 11 16 15 12 13 15 14 14 13 12 11 11 11 10 10 11 11 11 10
5 6 6 6 10 12 13 14 14 13 13 12 9 8 6 6 6 7 8 8 8 8 8 9 10 9 9 10 9 8 9 8 5 6 5 5 8 5 8 8 7 5 4 5 8 8 6 5 8 7 7 5 3 3 3 7 8 10 13 14 14 12 11 10 10 10 10 9 10 11 11 10 11 11
5 5 5 5 6 7 7 8 11 11 9 9 10 11 11 10 8 7 8 9 9 9 10 9 9 9 11 12 10 8 8 6 7 6 5 6 3 7 8 11 8 3 6 5 5 7 4 3 8 8 7 4 3 4 5 4 9 11 12 13 12 11 11 10 9 8 9 10 11 11 11 11 11 12
4 5 5 5 4 4 4 3 3 5 7 8 10 11 12 12 14 14 12 11 10 9 9 9 9 8 10 10 8 8 5 7 6 6 6 6 8 8 9 8 10 3 2 4 4 10 2 1 5 7 5 1 2 4 6 9 9 9 8 10 11 12 9 7 7 9 11 11 12 11 11 11 11 12
4 5 6 6 5 4 6 4 3 3 4 5 7 8 8 8 11 13 14 14 11 10 10 10 11 11 10 10 10 7 5 2 6 5 8 7 7 8 8 8 9 8 2 2 4 8 5 3 3 5 2 2 1 1 4 6 6 6 6 6 7 6 5 6 9 11 12 11 12 12 12 12 12 11
5 5 5 6 5 4 4 7 7 6 6 6 6 4 4 5 7 10 12 12 14 10 9 9 10 10 5 11 11 9 3 5 7 6 9 5 7 7 10 6 4 4 1 5 6 8 4 1 1 1 2 3 4 5 7 9 8 8 7 6 6 4 5 7 8 9 10 10 11 11 11 12 11 10
6 6 5 5 5 5 5 5 7 5 5 5 6 6 6 6 6 4 4 5 5 4 6 8 9 9 7 9 9 7 4 7 7 7 8 7 7 8 6 6 4 4 2 1 1 5 3 4 3 4 3 3 3 3 4 6 6 5 4 3 3 3 2 3 5 7 9 10 11 11 13 12 10 11
5 6 5 4 4 4 4 9 10 7 6 6 5 6 6 6 4 3 5 10 8 5 5 5 6 6 6 6 6 5 4 2 1 2 2 2 3 5 5 6 2 1 3 3 1 1 2 3 4 2 1 2 2 2 2 2 2 1 2 1 2 3 4 5 6 7 7 8 9 10 10 8 9 12
6 6 6 5 5 5 6 10 10 9 7 4 4 5 5 5 4 5 5 9 11 11 11 10 9 8 9 9 10 10 9 6 3 0 2 3 3 2 3 2 3 2 2 3 4 1 2 4 2 1 2 3 2 3 2 2 4 5 5 4 4 4 4 5 6 6 7 9 10 11 11 12 12 14
5 7 12 8 5 5 6 9 10 11 6 5 7 7 6 6 7 6 7 4 5 7 8 9 9 9 9 9 9 10 11 11 7 4 4 3 1 1 1 0 1 1 3 3 3 2 1 2 4 3 2 3 2 4 4 5 5 6 6 6 7 7 7 7 8 8 9 11 12 14 15 15 14 9
3 3 6 10 7 5 5 8 9 11 8 6 6 6 5 6 7 7 6 5 5 6 7 7 7 9 11 9 7 7 11 11 9 6 4 3 2 3 2 1 0 2 3 3 3 2 1 3 2 2 3 3 1 1 2 4 3 3 3 3 4 6 8 9 10 10 12 12 13 13 13 13 9 6
3 3 3 5 6 7 6 7 8 8 8 5 5 5 5 5 6 5 4 6 5 5 6 6 6 8 7 6 6 6 6 7 6 5 5 4 3 4 3 3 2 3 0 2 4 2 0 1 1 2 2 1 1 3 4 5 2 3 3 2 2 4 6 7 7 9 9 10 11 11 12 13 8 4
3 4 5 4 7 9 8 6 6 6 7 6 4 4 4 2 1 2 4 5 8 5 6 6 6 5 5 5 5 5 5 5 5 5 4 4 4 3 4 4 3 3 1 2 3 2 0 1 1 1 2 2 0 1 3 3 4 3 4 3 3 3 2 1 1 1 2 4 5 6 7 7 7 8
4 3 3 3 6 9 9 10 5 4 4 4 4 2 2 2 5 5 3 3 4 5 4 4 5 5 5 4 4 4 4 4 5 5 5 4 3 2 3 3 3 2 1 2 3 2 2 0 1 2 0 1 1 0 3 4 3 4 4 2 4 5 3 5 5 5 5 5 5 6 9 11 9 4
2 2 2 3 6 7 8 8 9 6 2 3 1 1 3 5 5 5 4 3 4 4 4 4 4 4 4 4 4 4 4 5 4 4 4 4 3 2 2 1 1 2 2 2 0 2 2 1 0 2 0 1 0 2 0 2 4 6 7 7 4 4 4 5 5 3 3 4 4 7 7 7 8 10
2 4 4 4 6 6 6 7 7 9 8 2 2 1 2 4 4 3 3 4 4 3 2 3 2 2 3 3 4 3 3 4 5 5 4 3 3 2 2 1 0 1 2 1 1 1 2 2 1 0 3 2 1 1 2 2 2 2 4 7 3 4 5 4 3 2 2 2 4 4 5 6 5 5
1 3 5 5 6 6 5 5 5 6 6 8 7 3 1 1 2 3 3 2 2 3 2 1 2 3 3 4 5 4 3 4 4 3 4 3 2 2 2 2 2 2 2 1 2 2 3 3 3 2 2 1 2 1 0 2 1 3 2 4 4 5 4 4 1 3 3 3 4 4 3 3 5 3
4 4 5 7 6 5 4 2 2 3 4 7 8 8 4 0 1 2 3 1 2 1 1 1 2 3 4 4 5 3 1 2 4 3 4 6 6 5 5 6 2 3 3 2 1 2 2 3 3 3 2 1 2 2 3 0 3 4 1 1 5 4 1 3 4 3 4 5 5 4 5 2 3 2
4 5 5 6 8 8 9 7 6 6 6 5 4 4 4 3 2 2 3 2 1 1 2 2 3 4 4 4 4 5 3 4 4 1 1 3 4 4 4 4 6 5 4 2 1 3 3 2 3 3 2 1 1 5 3 2 3 5 5 1 0 0 3 5 5 5 4 5 4 4 4 5 5 2
4 4 5 6 4 4 4 3 3 5 5 5 4 5 5 6 4 3 4 3 1 3 3 2 2 4 3 4 5 5 5 6 4 1 1 0 2 3 3 3 4 3 6 6 3 1 3 2 3 4 4 4 2 1 0 2 4 5 6 4 2 4 3 3 4 5 4 2 5 6 6 5 5 6
4 2 3 3 5 4 5 6 6 5 4 6 6 5 5 6 6 4 3 5 7 6 2 3 3 5 4 5 3 3 6 6 5 1 1 2 2 2 0 1 6 5 6 8 6 2 2 2 3 4 5 3 4 3 1 5 5 5 5 4 3 6 6 4 1 3 4 2 4 4 7 7 6 5
3 5 6 5 5 6 6 7 8 8 6 6 6 6 6 5 5 5 6 6 7 4 4 4 3 4 3 5 5 4 4 7 6 2 2 2 0 0 2 5 6 5 3 6 6 4 2 1 3 3 3 4 3 6 6 6 7 4 4 3 2 4 6 4 3 2 1 1 1 5 6 7 8 6
1 4 6 6 6 4 4 6 7 7 6 6 6 6 6 6 6 5 5 7 6 6 4 4 4 4 3 5 6 4 5 5 7 6 1 1 2 3 4 3 7 7 5 6 6 3 3 4 5 1 1 3 3 2 6 7 5 7 4 3 4 5 5 2 3 5 2 2 0 3 6 6 7 8
3 1 3 4 5 5 5 6 5 3 3 4 5 5 4 6 6 5 7 5 4 6 5 6 5 5 4 4 4 5 5 4 6 6 7 4 4 3 2 5 4 7 3 5 6 3 1 4 4 2 0 2 2 1 2 7 10 6 3 3 2 2 3 4 4 3 3 5 0 0 3 6 7 8
2 1 1 1 4 3 4 4 6 8 8 8 6 2 5 5 5 4 1 1 2 4 3 3 5 5 4 3 4 4 5 4 6 5 5 4 3 4 5 5 4 3 3 5 3 3 2 2 2 5 4 1 0 1 4 2 6 8 5 6 3 3 4 4 4 6 4 2 5 2 4 4 6 8
0 0 1 1 0 1 2 4 5 7 7 7 7 8 7 3 3 0 1 2 0 0 3 4 4 4 3 2 1 4 6 4 2 3 3 4 4 6 7 6 4 3 2 3 2 2 0 3 5 4 6 5 3 2 2 2 1 4 9 7 6 6 1 1 3 4 6 3 3 5 1 4 7 7
3 2 4 4 3 4 5 4 6 6 5 6 6 6 5 6 7 7 8 6 5 6 6 6 6 4 4 4 5 5 5 6 7 6 4 4 2 3 6 3 3 1 1 1 1 1 1 1 3 6 6 5 5 4 4 2 2 3 3 9 7 4 4 5 6 6 4 4 6 5 4 6 7 11
2 4 3 5 4 4 5 4 5 6 5 4 4 3 4 5 5 6 6 4 5 5 6 5 4 5 6 6 6 3 3 4 4 6 7 6 4 2 1 1 2 1 0 1 1 2 2 3 5 7 7 7 5 5 5 3 2 3 5 6 9 10 7 5 5 5 5 6 3 2 7 7 7 5
4 3 3 3 4 4 5 4 4 4 3 3 4 4 4 4 5 5 4 4 3 5 6 5 5 6 6 6 6 6 7 6 6 7 6 7 7 7 3 2 4 2 3 3 3 4 5 7 6 5 2 1 1 3 2 2 4 4 5 7 6 9 11 8 6 4 6 3 1 4 6 7 5 6
5 4 3 4 4 3 4 5 3 4 4 4 4 5 5 5 4 3 4 3 4 4 5 5 5 5 6 6 6 6 7 6 6 6 6 6 7 7 6 3 2 3 1 4 4 6 6 3 2 1 1 3 3 2 4 6 6 6 6 6 7 4 7 10 11 11 8 4 2 3 3 4 2 4
4 5 4 3 4 4 4 4 4 5 5 5 4 4 5 4 3 4 4 4 3 4 5 4 4 5 6 5 5 4 6 7 6 5 5 5 5 5 5 5 5 4 3 6 6 6 7 6 3 1 0 0 2 4 5 7 7 6 4 5 7 7 5 8 10 10 11 13 11 8 6 4 1 3
5 5 4 4 4 4 4 4 5 4 5 5 4 5 5 5 4 3 3 3 3 4 2 3 3 4 4 4 4 5 6 6 5 6 5 4 4 3 4 5 5 5 5 4 6 6 6 6 6 5 4 5 2 1 7 5 6 6 6 5 4 4 6 7 8 6 4 7 12 14 14 11 11 11
6 6 6 5 5 4 4 4 4 5 5 5 5 5 5 5 4 3 3 3 3 2 4 4 4 4 4 4 6 6 5 4 5 4 3 3 4 4 4 5 6 6 6 5 5 6 6 5 5 4 2 3 2 2 5 3 5 5 4 3 6 6 7 3 4 6 4 6 10 9 6 9 11 13
Wind_Direction
223 219 210 210 226 234 222 224 225 222 202 201 196 184 194 179 214 268 280 271 253 292 204 199 290 192 182 199 215 219 223 231 231 227 227 231 229 226 224 226 229 231 232 232 232 231 231 230 231 232 233 234 234 235 239 241 242 243 243 243 242 237 234 233 235 238 240 242 244 242 244 250 254 257
253 275 286 252 255 258 252 242 218 199 199 193 193 194 188 161 193 204 244 274 219 260 276 205 251 296 245 211 248 201 225 229 221 219 221 227 234 234 228 226 228 231 232 232 232 233 233 233 232 232 232 232 234 236 237 239 241 242 242 240 237 233 227 226 230 233 235 238 240 239 242 249 254 257
223 231 244 232 232 249 253 262 279 288 275 258 223 214 173 187 190 196 199 268 268 197 257 270 264 262 264 227 254 246 229 234 223 222 220 223 226 230 232 229 229 230 231 232 232 232 233 234 235 234 233 233 235 236 238 240 240 240 239 237 232 229 224 223 226 229 232 236 238 237 242 249 254 257
229 234 247 253 253 244 223 239 240 242 240 224 231 236 225 219 206 196 201 219 267 213 232 255 268 264 283 284 270 272 259 226 220 221 224 229 229 231 236 238 234 232 231 232 232 232 233 233 234 235 235 236 237 239 239 238 236 236 235 233 230 225 220 223 224 227 231 236 237 237 242 248 253 256
234 229 232 246 246 232 237 246 246 243 241 234 231 232 220 231 208 187 205 236 266 281 225 247 261 264 242 284 246 260 274 283 267 231 235 234 231 230 232 237 237 234 234 233 233 233 232 233 235 236 238 239 240 240 238 235 231 230 230 230 228 224 221 221 223 225 229 233 234 236 242 247 252 255
237 227 228 242 246 234 231 242 244 235 234 226 228 230 215 225 233 200 202 233 239 271 292 286 267 278 237 260 269 248 268 270 274 274 256 243 230 235 233 235 243 236 233 234 235 233 233 233 235 237 239 240 241 242 241 237 232 228 228 228 226 222 221 221 223 227 228 229 231 235 240 246 251 254
233 236 236 241 241 236 235 242 242 240 238 232 226 234 220 226 231 221 206 219 247 255 266 258 282 271 272 245 277 275 256 259 252 258 260 244 239 232 231 233 242 242 232 233 233 232 232 233 234 235 236 236 236 238 238 237 233 229 227 226 224 221 218 220 222 225 227 228 229 233 238 244 250 251
230 231 236 246 244 234 231 243 243 240 236 234 231 235 236 225 235 230 214 212 224 242 256 257 239 271 276 272 257 269 277 275 275 253 261 242 239 242 234 229 236 241 233 231 233 233 231 233 235 235 235 236 237 236 236 236 234 231 228 225 222 219 215 214 218 220 224 226 227 230 237 242 246 246
223 228 228 240 240 233 233 243 245 242 236 235 230 234 237 228 234 237 221 224 215 234 246 259 239 242 256 258 271 258 267 277 270 269 255 249 235 239 237 231 237 244 245 237 237 239 242 243 245 243 240 238 238 238 236 236 235 233 228 224 220 215 211 210 211 215 218 222 224 226 229 235 234 238
225 228 231 238 236 229 228 240 242 243 243 242 239 241 241 235 236 238 241 228 229 225 246 246 269 252 246 270 260 252 218 244 268 272 266 269 263 249 264 253 246 243 235 228 232 236 240 242 244 248 250 250 248 246 242 239 237 235 229 223 217 212 208 207 207 207 210 217 223 225 226 228 230 237
233 237 239 234 226 223 225 233 238 236 238 236 242 244 249 251 251 260 261 251 238 235 248 261 245 256 247 229 262 262 197 230 233 253 276 280 263 251 231 258 254 242 247 235 225 229 231 234 237 239 241 242 243 242 241 241 241 239 235 227 220 212 205 210 205 203 206 213 220 224 225 227 229 231
244 242 240 238 234 226 225 223 233 224 236 225 239 241 235 242 238 256 266 259 247 252 251 251 265 252 261 258 237 278 315 267 268 237 231 252 268 268 243 235 256 248 229 252 256 256 257 251 244 250 248 243 242 243 245 246 243 238 229 223 219 215 208 205 202 200 206 213 216 219 223 225 227 227
263 258 249 243 239 229 224 221 222 219 209 206 226 243 223 230 229 246 261 262 260 255 250 260 255 263 267 260 267 266 252 240 247 251 199 239 253 267 289 273 251 254 261 254 254 263 262 272 266 251 255 251 244 248 247 248 244 246 236 230 225 218 208 201 196 199 206 210 213 218 222 225 225 225
279 272 269 259 251 249 248 247 242 234 221 213 209 228 229 224 236 244 252 257 257 257 259 255 260 262 257 260 252 248 247 255 282 291 271 256 273 324 289 280 258 223 218 255 266 258 258 252 274 265 248 257 223 228 213 217 214 240 237 230 220 213 208 197 194 198 201 206 214 221 225 226 225 225
255 267 271 277 278 269 262 258 254 257 258 259 256 255 253 245 235 239 244 248 250 252 252 254 254 253 261 262 264 258 256 239 231 229 231 251 254 257 267 277 288 211 192 216 246 277 257 211 256 265 267 251 192 215 248 241 235 227 218 207 204 202 200 195 190 193 202 207 213 220 228 229 227 228
276 280 284 282 276 268 261 252 250 239 243 243 241 244 250 252 251 242 240 250 254 255 263 268 263 263 260 268 265 267 252 253 258 250 251 239 245 250 244 247 258 265 142 197 232 259 291 173 233 267 286 308 212 231 223 221 216 207 191 189 196 200 194 180 190 205 209 212 214 217 223 231 234 235
297 294 290 292 294 293 300 309 319 311 306 297 282 264 261 251 250 259 254 245 240 253 264 266 265 259 268 271 266 259 263 227 263 261 258 249 245 251 266 249 258 269 190 261 266 270 253 187 223 231 332 38 60 164 217 206 199 187 182 168 167 159 166 194 204 209 211 210 212 217 222 232 239 240
290 294 303 302 306 320 7 26 3 345 329 316 299 303 281 267 261 251 248 249 242 230 231 244 254 259 245 259 256 252 209 231 247 244 254 252 264 248 248 260 258 276 120 234 280 275 269 233 161 140 43 41 56 56 76 87 96 108 112 111 109 130 167 190 200 205 208 208 213 219 227 236 243 243
19 18 12 12 13 15 45 25 358 336 328 315 302 290 278 268 259 272 288 284 288 263 224 233 241 260 260 273 292 297 284 253 257 261 272 275 271 278 288 290 271 288 44 346 197 279 34 357 54 26 24 32 42 42 46 67 73 74 81 98 112 134 170 202 207 205 206 211 219 226 233 239 242 245
27 21 11 5 12 10 19 8 349 338 311 294 288 290 294 305 318 325 3 35 44 40 19 2 19 32 51 55 39 10 346 326 319 270 246 233 256 273 281 280 325 18 9 35 54 43 16 0 100 76 19 38 42 11 37 56 38 0 332 302 259 241 220 215 217 224 226 229 237 245 255 257 247 245
35 32 27 20 17 10 11 352 345 338 335 305 325 324 328 327 324 33 21 71 55 60 64 67 65 55 46 44 37 26 14 357 305 280 47 27 11 340 306 329 35 20 354 21 37 104 45 351 32 36 9 18 18 8 351 346 346 340 312 298 288 274 267 254 245 239 236 236 241 245 244 240 237 236
36 35 41 40 28 20 14 354 359 0 357 21 15 5 2 10 27 14 352 26 46 56 64 56 51 43 36 33 33 28 20 16 12 36 46 331 343 40 354 77 78 36 38 19 1 79 356 333 15 19 327 26 17 7 358 346 339 334 316 295 280 270 259 252 244 236 233 232 233 236 235 233 230 231
43 28 34 40 39 39 13 9 19 19 22 40 26 16 19 27 33 12 4 15 22 21 29 23 20 24 22 20 23 16 18 22 29 26 24 346 49 88 63 86 69 37 6 352 358 94 338 57 6 50 31 15 313 332 328 324 315 312 308 303 294 257 244 241 236 235 233 233 238 243 249 249 228 230
25 24 16 23 16 7 15 22 27 30 25 39 24 26 31 25 24 357 17 34 41 34 34 27 28 31 18 14 16 13 14 15 18 21 20 22 38 84 83 55 73 120 238 308 353 101 157 98 39 20 113 117 342 318 336 323 303 303 290 282 275 267 247 244 246 246 250 257 263 265 266 267 242 237
32 12 6 350 12 357 352 17 40 40 39 39 56 42 61 40 304 43 52 33 43 44 37 32 29 21 9 11 4 3 8 8 1 2 11 30 48 70 72 66 61 62 357 275 321 91 70 78 88 29 20 73 162 338 290 283 299 319 342 353 345 332 354 348 279 319 264 268 276 277 263 257 227 200
21 356 349 343 0 356 346 341 5 60 60 61 74 74 166 112 78 81 85 75 61 49 38 24 25 13 1 355 350 346 347 347 350 355 349 352 11 55 118 120 114 87 319 300 66 121 110 3 173 100 27 52 325 32 323 314 289 320 325 8 34 356 16 20 28 21 7 359 2 3 349 346 341 227
330 304 325 321 349 349 336 335 333 340 26 61 55 168 95 86 99 98 87 89 78 60 48 40 21 360 349 336 330 325 334 332 333 334 330 331 346 6 15 43 129 160 227 256 318 124 100 126 92 114 122 138 23 315 50 358 325 334 353 2 9 19 22 47 42 22 0 0 347 349 354 355 355 348
336 339 332 314 315 317 328 333 323 325 329 318 275 57 85 78 70 82 83 73 90 97 76 58 3 313 291 279 289 290 287 314 319 308 303 304 319 330 321 316 311 216 204 195 113 110 116 123 117 148 138 136 121 62 340 298 292 309 340 323 342 32 20 30 10 15 2 348 1 3 13 358 341 357
301 282 280 283 298 302 307 310 328 309 294 301 307 311 316 77 77 88 98 108 93 61 57 331 273 272 269 255 260 268 291 301 317 333 327 329 325 322 299 285 266 276 255 192 147 142 139 136 160 143 99 120 127 216 116 271 321 300 341 347 337 327 331 335 328 17 346 1 7 353 349 311 322 324
250 278 298 294 287 283 262 269 272 294 286 301 302 292 283 320 161 143 126 128 92 116 258 261 259 263 266 295 280 273 284 343 311 321 328 351 341 359 0 358 337 319 298 281 182 180 152 144 141 133 113 124 161 205 209 280 298 275 289 281 283 307 292 343 339 349 5 350 339 328 306 289 279 307
318 307 293 278 279 274 270 259 248 249 266 280 281 277 281 273 242 206 182 168 164 185 212 250 262 270 261 283 322 323 7 327 291 248 280 345 310 359 351 5 321 331 313 300 205 187 191 163 135 136 138 224 229 223 215 170 258 300 299 268 123 87 300 336 331 351 344 330 322 315 323 330 322 283
292 289 286 289 296 307 309 284 260 261 256 245 240 253 251 250 250 243 244 236 195 218 189 223 278 299 321 321 303 315 319 299 292 263 240 241 306 343 345 3 313 307 308 309 310 214 176 155 161 188 186 176 189 282 114 185 234 266 278 290 293 283 270 275 317 318 320 320 356 339 314 307 306 310
297 284 290 307 320 325 314 312 301 275 267 267 242 231 247 243 242 249 248 251 251 239 196 247 256 273 303 299 302 319 319 304 306 334 257 275 241 319 58 238 281 306 316 316 315 342 108 147 170 188 209 222 212 195 218 305 275 233 235 266 356 320 309 301 299 291 323 20 341 322 328 319 302 285
302 313 325 321 330 317 319 308 299 297 281 273 265 241 227 231 239 231 231 242 256 259 225 237 235 264 289 301 304 320 303 302 301 292 205 263 146 14 329 325 294 278 261 268 288 305 80 121 127 198 225 241 231 203 192 201 254 263 235 280 289 285 279 289 298 280 288 233 271 328 325 316 307 301
296 314 328 318 323 308 306 292 288 281 274 260 253 247 230 222 232 238 234 243 247 259 256 259 247 254 252 263 284 291 289 289 295 316 303 182 182 230 260 290 292 298 297 300 296 284 131 145 138 98 341 356 355 305 225 207 201 260 312 282 230 224 268 272 305 310 330 310 188 334 310 305 309 306
323 300 291 307 317 328 330 321 302 296 267 267 263 268 244 240 233 230 239 239 227 243 235 245 262 267 264 267 286 290 286 288 293 297 315 306 279 269 235 239 263 278 276 265 269 305 101 129 138 115 65 353 33 353 318 233 210 197 188 261 260 218 265 291 305 293 309 308 276 283 278 281 289 295
312 323 254 282 310 313 322 350 22 26 22 15 2 310 259 269 257 256 318 35 337 318 324 340 316 314 318 324 310 288 283 279 281 299 298 302 292 281 295 293 276 274 288 266 257 278 171 129 138 113 110 66 86 219 251 318 264 238 186 222 267 250 247 280 323 316 280 227 286 242 239 266 284 293
193 159 112 142 75 8 41 42 45 41 25 15 11 4 357 319 283 268 126 101 93 53 18 26 350 334 303 262 272 307 310 308 259 272 282 284 289 273 243 248 272 287 273 287 341 73 299 128 136 136 133 159 177 247 300 305 354 252 205 202 219 258 190 239 292 274 298 300 234 270 259 284 275 274
170 182 167 133 136 122 94 83 77 64 48 38 31 22 16 23 24 39 52 58 56 59 54 47 27 2 10 24 40 37 14 0 10 348 326 324 285 253 269 264 294 294 333 343 15 13 45 76 167 166 165 152 170 209 192 184 249 267 251 212 211 243 244 204 246 278 272 286 295 301 263 238 259 272
167 179 182 145 152 134 113 110 97 104 96 89 86 72 72 62 48 46 43 36 45 47 59 49 24 27 29 26 23 24 49 30 358 356 360 341 323 258 235 266 232 311 49 15 262 234 225 217 210 198 196 194 199 195 186 182 239 288 299 288 222 202 224 175 223 250 283 252 232 328 302 326 328 318
126 140 183 162 143 122 107 96 102 94 78 69 67 63 62 74 75 64 60 51 47 50 49 41 38 36 31 21 23 27 28 12 12 6 358 354 350 0 13 22 350 349 348 326 290 301 255 229 231 224 172 214 103 93 58 325 290 287 300 288 289 241 228 201 222 201 222 241 236 271 275 283 284 320
141 148 160 156 130 127 115 108 101 91 75 69 70 73 76 75 84 87 72 58 56 57 54 46 42 41 33 22 17 21 33 18 7 0 358 0 355 350 352 19 337 317 353 300 294 268 272 277 266 153 113 130 135 159 226 220 238 263 261 278 297 278 238 236 229 225 229 206 186 265 289 331 6 316
138 135 136 144 126 125 118 113 104 94 82 74 71 82 93 84 66 55 52 57 52 60 57 48 39 48 33 24 22 25 26 12 358 347 346 350 354 349 344 335 328 308 281 283 286 292 298 326 360 26 55 124 206 168 221 228 221 240 274 291 280 305 286 231 233 242 244 236 217 204 184 193 203 275
148 136 146 150 131 121 116 113 107 103 100 95 100 99 105 105 91 73 72 74 68 67 70 73 53 51 44 27 18 27 21 0 342 343 338 333 331 340 342 339 346 346 353 347 334 335 340 344 338 0 344 298 295 196 250 258 265 243 240 253 291 307 281 305 318 312 268 234 229 227 234 218 210 231
155 151 151 148 136 129 126 128 121 115 104 105 101 107 105 95 94 83 72 73 74 64 58 54 49 40 41 34 36 23 350 335 341 336 332 333 340 347 7 15 16 19 21 5 5 357 353 348 342 360 339 313 326 250 276 260 265 292 291 309 300 294 291 311 307 286 303 311 295 274 221 213 233 253